{"data":{"norad_id":46807,"intl_designator":"2020-076A","name":"YAOGAN-30 08A","alt_names":[],"object_type":"PAYLOAD","status":"ACTIVE","operator":null,"country":"PRC","launch_date":"2020-10-26","launch_site_code":"XICLF","launch_vehicle":null,"mission":null,"orbit_class":"UNKNOWN","rcs_meters":null,"size_class":null,"mass_kg":null,"dimensions":null,"purposes":[],"wikipedia_slug":null,"has_3d_model":false,"image_url":null,"decayed_at":null,"tle_current":{"epoch":"2026-09-20T04:14:27.494304Z","epoch_age_seconds":101614,"freshness":"FRESH","line1":"1 46807U 20076A   26263.17670711  .00001826  00000+0  13499-3 0  9994","line2":"2 46807  34.9933 232.0842 0000848 258.5959 101.4654 15.03036723322415","mean_motion":15.03036723,"eccentricity":8.48e-5,"inclination_deg":34.9933,"raan_deg":232.0842,"arg_perigee_deg":258.5959,"mean_anomaly_deg":101.4654,"bstar":0.00013499,"rev_number":32241,"period_min":95.806042391687,"perigee_km":556.95058884239,"apogee_km":558.1268794469,"semimajor_km":6935.6757341446,"source":"CELESTRAK","updated_at":"2026-09-20T09:00:14.798150Z"}}}